Preview of NWS' New Version of Forecast
This preview is not operational and should not be used for support decisions.
Latest weather observations around

Concord, Buchanan Field (KCCR)

Using International System of Units (Switch to English Units)
Date/ Time (PST) Wind (kph) Vis. (km) Weather Sky Cond. Temp (°C) Rel. Humidity Wind Chill (°C) Heat Index (°C) Pressure Precip. (cm)
Air Dwpt 6 hour Altimeter (hPa) Sea level (hPa) 1 hr 3 hr 6 hr
Max Min
Feb 18 13:53 NNE 15 16.09 Clear CLR 14 -3     30%     1023.4        
Feb 18 12:53 NNE 21 16.09 Clear CLR 13 -4     31%     1023.7        
Feb 18 11:53 NNE 18 16.09 Clear CLR 12 -4     31%     1024.4        
Feb 18 10:53 Calm 16.09 Clear CLR 12 -3     36%     1024.1        
Feb 18 09:53 Calm 16.09 Clear CLR 9 -1     51%     1024.4        
Feb 18 08:53 SW 5 16.09 Clear CLR 6 2     76% 5   1024.1        
Feb 18 07:53 SE 11 16.09 Clear CLR 2 -1     85% -2   1023.4        
Feb 18 06:53 SE 5 16.09 Clear CLR 1 -1     88% -1   1022.7        
Feb 18 05:53 SE 5 16.09 Clear CLR 1 -1     88% -1   1022        
Feb 18 04:53 SE 5 16.09 Clear CLR 1 -1     85% -1   1021.3        
Feb 18 03:53 SE 5 16.09 Clear CLR 1 -1     88% -1   1021        
Feb 18 02:53 SSE 5 16.09 Clear CLR 2 0     85% 1   1021        
Feb 18 01:53 SSE 5 16.09 Clear CLR 3 1     85% 1   1021        
Feb 18 00:53 SE 5 16.09 Clear   3 1     85% 2   1021        
Feb 17 23:53 Calm 14.48 Clear CLR 4 2     86%     1020.3        
Feb 17 22:53 SE 8 14.48 Clear CLR 4 2     86% 3   1020        
Feb 17 21:53 SW 8 16.09 Clear CLR 6 3     82% 4   1019.7       0
Feb 17 20:53 NE 11 16.09 Mostly Cloudy SCT045 SCT060 BKN080 6 3     85% 3   1019.3        
Feb 17 19:53 S 8 16.09 Clear CLR 7 4     82% 5   1018.3        
Feb 17 18:53 S 9 16.09 Cloudy OVC065 7 3     76% 5   1017.6   0 0  
Feb 17 17:53 SW 13 16.09 Cloudy SCT038 BKN075 OVC090 8 4     76% 6   1016.9   0    
Feb 17 16:53 NNE 11 16.09 Cloudy OVC044 9 2     63% 7   1015.9   0    
Feb 17 16:42 NNE 13 16.09 Cloudy BKN042 BKN049 OVC055 10 2     56%     1015.9   0    
Feb 17 16:27 NNE 21 9.66 Thunderstorms and Rain BKN046 BKN065 OVC085 10 2     58%     1015.9   0    
Feb 17 15:53   16.09 Mostly Cloudy SCT050 BKN100 13 1     43%     1015.2        
Feb 17 14:53 WNW 22 16.09 Mostly Cloudy BKN060 13 -1     37%     1015.6        
Feb 17 13:53 WNW 13 16.09 Partly Cloudy SCT044 12 1     46%     1015.9        
Feb 17 12:53 NW 13 16.09 Clear CLR 12 0     45%     1016.6        
Feb 17 11:53 11 16.09 Partly Cloudy SCT045 11 1     52%     1017.6        
Feb 17 10:53 W 13 16.09 Partly Cloudy SCT035 10 2     56%     1017.6        
Feb 17 09:53 NW 13 16.09 Mostly Cloudy SCT025 BKN120 9 2     63% 7   1017.6       0
Feb 17 08:53 NW 17 16.09 Partly Cloudy SCT025 8 2     68% 5   1017.6        
Feb 17 08:17 NW 18 16.09 Partly Cloudy SCT022 7 2     71% 4   1017.3        
Feb 17 08:05 NW 15 16.09 Mostly Cloudy BKN022 7 2     68% 5   1016.9        
Feb 17 07:53 WNW 22 16.09 Partly Cloudy SCT023 SCT030 7 2     68% 4   1016.9        
Feb 17 07:32 WNW 17 16.09 Partly Cloudy SCT023 SCT030 7 2     73% 4   1016.6        
Feb 17 06:53 WSW 9 16.09 Mostly Cloudy BKN027 7 2     71% 5   1016.3     0  
Feb 17 06:39 W 9 16.09 Mostly Cloudy BKN027 7 2     71% 5   1016.3        
Feb 17 05:53 SW 17 16.09 Cloudy FEW031 OVC110 8 3     73% 5   1015.9        
Feb 17 04:53 S 17 16.09 Cloudy FEW060 OVC075 8 4     76% 5   1016.3   0    
Feb 17 03:53 S 13 16.09 Cloudy FEW039 BKN080 OVC090 7 4     80% 5   1016.9   0   0
Feb 17 02:53 SSW 15 16.09 Cloudy FEW050 SCT070 OVC100 8 2     68% 5   1017.6   0    
Feb 17 01:53 SSW 15 16.09 Cloudy OVC110 8 2     65% 5   1018.6        
Feb 17 00:53 SW 15 16.09 Cloudy OVC110 7 1     65% 5   1019.3        
Feb 16 23:53 W 18 16.09 Clear CLR 8 1     60% 5   1019.7        
Feb 16 22:53 W 26 16.09 Clear CLR 8 1     63% 4   1019.7        
Feb 16 21:53 SW 13 16.09 Clear   8 1     63% 6   1020        
Feb 16 20:53 W 15 16.09 Clear CLR 8 2     63% 6   1019.7        
Feb 16 19:53 W 8 16.09 Clear CLR 8 2     63% 7   1019.7        
Feb 16 18:53 WNW 18 16.09 Clear CLR 9 2     61% 6   1019.3        
Feb 16 17:53 W 22 16.09 Clear CLR 10 2     56%     1019.3        
Feb 16 16:53 WNW 9 16.09 Partly Cloudy SCT049 11 4     63%     1019.3        
Feb 16 15:53 W 13 16.09 Clear CLR 11 5     66%     1019.7   0   0
Feb 16 14:53 WNW 26 16.09 Cloudy FEW033 SCT048 OVC060 12 3     55%     1020        
Feb 16 13:53 W 18 16.09 Mostly Cloudy SCT065 BKN085 13 4     57%     1020.3   0    
Feb 16 12:53 W 21 16.09 Cloudy SCT033 SCT050 OVC095 11 5     66%     1021   0 0  
Feb 16 11:53 W 24 16.09 Mostly Cloudy FEW036 SCT048 BKN055 12 4     57%     1021.7   0    
Feb 16 10:53 W 24 16.09 Light Rain FEW031 SCT038 BKN048 11 5     68%     1022.4   0    
Feb 16 09:53 W 17 11.27 Light Rain BKN030 OVC041 10 4     66%     1022.4   0   0
Feb 16 08:53 WSW 15 16.09 Clear CLR 10 4     66%     1021.7        
Feb 16 07:53 SSW 15 16.09 Clear CLR 9 4     71% 7   1021.7        
Feb 16 06:53 WSW 24 16.09 Partly Cloudy SCT015 SCT040 8 4     74% 5   1021.3   0 0  
Feb 16 05:53 WSW 17 16.09 Clear CLR 8 3     73% 5   1020.3        
Feb 16 04:53 SW 18 16.09 Mostly Clear FEW050 FEW110 8 4     76% 5   1019.7   0    
Feb 16 03:53 SW 17 16.09 Light Rain FEW043 SCT120 8 4     79% 5   1019.7   0   0
Feb 16 02:53 SSW 9 16.09 Cloudy SCT050 BKN065 OVC110 8 5     82% 6   1019.3   0    
Feb 16 01:53 S 11 16.09 Cloudy FEW035 BKN055 OVC070 7 5     86% 5   1019.3   0    
Feb 16 00:53 SSW 15 16.09 Light Rain FEW041 SCT060 BKN110 8 4     79% 5   1019.3   0 0  
Feb 15 23:53 SSW 17 16.09 Light Rain FEW031 FEW036 BKN047 8 4     79% 5   1018.6   0    
Feb 15 22:53 SSW 15 16.09 Partly Cloudy SCT065 SCT120 8 4     76% 5   1018.6   0    
Feb 15 21:53 S 13 16.09 Clear CLR 8 3     73% 6   1018.3        
Feb 15 20:53 S 15 16.09 Clear CLR 8 3     73% 5   1017.6        
Feb 15 19:53 SSW 11 16.09 Clear CLR 8 3     71% 6   1017.3        
Feb 15 18:53 SW 11 16.09 Mostly Clear FEW055 9 3     66% 7   1017.3        
Feb 15 17:53 SW 18 16.09 Clear CLR 9 2     61% 7   1016.3        
Feb 15 16:53 WSW 13 16.09 Mostly Clear FEW120 11 2     56%     1015.9        
Feb 15 15:53 NW 15 16.09 Mostly Clear FEW035 10 3     63%     1016.3   0   0
Feb 15 14:53   16.09 Partly Cloudy FEW046 SCT060 12 2     50%     1015.6        
May 15 01:49 W 9 16.09 Mostly Cloudy BKN020 13 9     77%     1015.6        
May 14 19:53 SW 24 16.09 Clear CLR 15 9     67%     1014.6        
May 14 17:53 W 30 16.09 Clear CLR 18 9     56%     1013.9        
May 14 15:53   16.09 Clear CLR 19 9     52%     1014.6        
May 14 14:53 WSW 32 16.09 Mostly Clear and Windy FEW026 19 9     54%     1015.2        
May 14 04:53 WSW 17 16.09 Cloudy OVC016 13 8     74%     1015.6        
May 12 13:53   16.09 Clear   26 8     32%   26 1010.5        
May 11 18:53   16.09 Clear CLR 28 0     16%   27 1006.8        
Jun 12 06:53 SSW 13 16.09 Clear CLR 13 9     77%     1017.6        
Jun 11 17:53   16.09 Mostly Cloudy SCT046 BKN085 18 7     47%     1013.9        
Jun 11 16:53 W 28 16.09 Clear CLR 21 6     39%     1012.9        
Jun 10 19:53 WNW 26 16.09 Mostly Clear FEW037 18 8     54%     1013.2        
Jun 10 13:53 WNW 26 16.09 Partly Cloudy SCT040 23 6     34%   22 1013.9        
Jun 10 07:53   16.09 Clear CLR 16 7     55%     1014.2        
Jun 09 20:53 SW 18 16.09 Clear CLR 16 7     56%     1014.2        
Jun 09 09:06 W 17 16.09 Cloudy BKN019 OVC029 17 14     81%     1013.9        
Jun 09 04:53 SSW 5 16.09 Cloudy OVC029 17 14     84%     1013.9       0
Jun 09 01:53 WSW 13 16.09 Cloudy FEW011 OVC025 17 14     86%     1014.6     0  
Jun 08 20:53 WNW 8 16.09 Cloudy OVC035 18 15     84%     1015.2        
Jun 08 10:00 SSW 15 16.09 Cloudy OVC029 17 8     56%     1016.3        
Jun 07 06:53   16.09 Mostly Clear FEW012 13 11     84%     1012.2